Weather History for Pellston, MI

Change the Weather History Date:

Monday, July 1, 2013

  Actual Average Record
Temperature  
Mean Temperature 59 °F -  
Max Temperature 73 °F 76 °F 95 °F (1963)
Min Temperature 45 °F 52 °F 33 °F (1960)
Degree Days  
Heating Degree Days 6    
Growing Degree Days 9 (Base 50)    
Moisture  
Dew Point 44 °F    
Average Humidity 60    
Maximum Humidity 93    
Minimum Humidity 30    
Precipitation  
Precipitation 0.00 in - - ()
Sea Level Pressure  
Sea Level Pressure 30.16 in    
Wind  
Wind Speed 5 mph (East)    
Max Wind Speed 16 mph    
Max Gust Speed 21 mph    
Visibility 10 miles    
Events      
Averages and records for this station are not official NWS values.
T = Trace of Precipitation, MM = Missing Value Source: NWS Daily Summary

Daily Weather History Graph

Daily Weather History Graph

Search for Another Location

Airport:

Trip Planner

Search our weather history database for the weather conditions in past years. The results will help you decide how hot, cold, wet, or windy it might be!

Date:

Astronomy

Jul. 01, 2013 Rise Set
Actual Time 5:54 AM EDT 9:31 PM EDT
Civil Twilight 5:16 AM EDT 10:09 PM EDT
Nautical Twilight 4:26 AM EDT 10:59 PM EDT
Astronomical Twilight 3:18 AM EDT 12:06 AM EDT
Moon 1:35 AM EDT (7/1) 3:36 PM EDT (7/1)
Length of Visible Light 16h 53m
Length of Day
15h 37m
Waning Crescent, 35% of the Moon is Illuminated
Jul 1
Waning Crescent
Jul 8
New
Jul 15
First Quarter
Jul 22
Full
Jul 29
Last Quarter

Hourly Weather History & Observations

Time (EDT) Temp. Dew Point Humidity Pressure Visibility Wind Dir Wind Speed Gust Speed Precip Events Conditions
12:54 AM 50.0 °F 48.0 °F 93% 30.08 in 10.0 mi Calm Calm - N/A   Clear
1:54 AM 48.9 °F 46.0 °F 90% 30.08 in 10.0 mi WNW 3.5 mph - N/A   Clear
2:54 AM 48.0 °F 45.0 °F 89% 30.09 in 10.0 mi Calm Calm - N/A   Clear
3:54 AM 46.9 °F 45.0 °F 93% 30.08 in 10.0 mi Calm Calm - N/A   Clear
4:54 AM 46.0 °F 44.1 °F 93% 30.10 in 10.0 mi Calm Calm - N/A   Clear
5:54 AM 45.0 °F 43.0 °F 93% 30.12 in 10.0 mi Calm Calm - N/A   Clear
6:54 AM 48.9 °F 46.0 °F 90% 30.14 in 10.0 mi Calm Calm - N/A   Clear
7:54 AM 60.1 °F 52.0 °F 75% 30.14 in 10.0 mi Calm Calm - N/A   Clear
8:54 AM 66.9 °F 51.1 °F 57% 30.16 in 10.0 mi East 10.4 mph - N/A   Clear
9:54 AM 66.9 °F 48.9 °F 52% 30.17 in 10.0 mi East 11.5 mph 18.4 mph N/A   Overcast
10:54 AM 69.1 °F 48.0 °F 47% 30.18 in 10.0 mi East 11.5 mph 20.7 mph N/A   Clear
11:54 AM 72.0 °F 45.0 °F 38% 30.18 in 10.0 mi ENE 15.0 mph - N/A   Clear
12:54 PM 72.0 °F 44.1 °F 37% 30.19 in 10.0 mi ENE 15.0 mph - N/A   Clear
1:54 PM 72.0 °F 42.1 °F 34% 30.19 in 10.0 mi East 16.1 mph 20.7 mph N/A   Clear
2:54 PM 72.0 °F 39.9 °F 31% 30.19 in 10.0 mi East 13.8 mph 18.4 mph N/A   Clear
3:54 PM 73.0 °F 39.9 °F 30% 30.19 in 10.0 mi ENE 12.7 mph - N/A   Clear
4:54 PM 73.0 °F 42.1 °F 33% 30.18 in 10.0 mi East 11.5 mph - N/A   Clear
5:54 PM 72.0 °F 41.0 °F 33% 30.19 in 10.0 mi East 9.2 mph - N/A   Clear
6:54 PM 73.0 °F 41.0 °F 31% 30.18 in 10.0 mi ENE 10.4 mph - N/A   Clear
7:54 PM 71.1 °F 37.9 °F 30% 30.18 in 10.0 mi ESE 6.9 mph - N/A   Clear
8:54 PM 66.0 °F 42.1 °F 42% 30.17 in 10.0 mi SE 3.5 mph - N/A   Clear
9:54 PM 55.9 °F 46.0 °F 69% 30.18 in 10.0 mi Calm Calm - N/A   Clear
10:54 PM 50.0 °F 45.0 °F 83% 30.19 in 10.0 mi Calm Calm - N/A   Clear
11:54 PM 46.0 °F 43.0 °F 89% 30.19 in 10.0 mi Calm Calm - N/A   Clear